Volver al catálogo

XINGCHI-1 02B

ActivoCienciaSSO
NORAD 58498·PAYLOAD·🇨🇳 China

Lanzado Dec 4, 2023 desde Jiuquan Satellite Launch Center

Loading…

Próximos Pases (próximas 24 horas)

TLE

ActualizadoSource: Space-Track

Época: Sep 14, 2026, 21:55 UTC

1 58498U 23187C   26257.91362400  .00001126  00000-0  13502-3 0  9996
2 58498  97.9255 341.6789 0010048 199.8448 160.2377 14.86022314150505

Sigue XINGCHI-1 02B en tiempo real con AllMySat

Download on the App Store